Flag for Canada Weather past 2 weeks in Prince Rupert, British Columbia, Canada

Now
43 °F

Partly sunny.


Feels Like: 37 °F
Forecast: 42 / 45 °F
Wind: 9 mph from Southeast

Location: Prince Rupert

Current Time: Dec 21, 2014 at 9:36:48 AM

Latest Report: Dec 21, 2014 at 9:00 AM


Visibility: 9 mi

Pressure: 29.48 "Hg

Humidity: 93%

Dew point: 41 °F

Location of Prince RupertLocation

Historic Weather in Prince Rupert — Graph

°F

Prince Rupert temperature yesterday

Maximum temperature yesterday: 46 °F (at 3:00 AM)
Minimum temperature yesterday: 43 °F (at 12:00 AM)
Average temperature yesterday: 44 °F

Past Weeks' High & Low Weather Summary

 TemperatureHumidityPressure
High54 °F (Dec 7, 11:00 AM)100% (Dec 6, 10:01 AM)30.07 "Hg (Dec 6, 10:01 AM)
Low32 °F (Dec 17, 9:00 AM)29% (Dec 15, 10:00 AM)28.69 "Hg (Dec 10, 2:00 PM)
Average45 °F79%29.47 "Hg
* Reported Dec 6 8:00 AM — Dec 21 8:00 AM, Prince Rupert, Weather by CustomWeather, © 2014

Note: Actual official high and low records may vary slightly from our data, if they occured in-between our weather recording intervals... More about our weather records

Advertising

Prince Rupert weather history for previous 24 hours

 ConditionsComfort  
Time TempWeatherWind HumidityBarometerVisibility
8:00 AM
Dec 21
43 °FMostly cloudy.12 mph93%29.45 "Hg9 mi
7:00 AM43 °FMostly cloudy.8 mph100%29.43 "Hg9 mi
6:00 AM43 °FLight rain. Mostly cloudy.8 mph100%29.39 "Hg9 mi
5:50 AM43 °FLight rain. Mostly cloudy.8 mph100%29.39 "Hg9 mi
5:00 AM43 °FLight rain. Mostly cloudy.3 mph100%29.37 "Hg7 mi
4:57 AM43 °FLight rain. Overcast.7 mph100%29.37 "Hg7 mi
4:00 AM43 °FOvercast.10 mph93%29.34 "Hg9 mi
3:58 AM43 °FOvercast.10 mph93%29.34 "Hg9 mi
3:00 AM43 °FLight rain. Mostly cloudy.5 mph93%29.33 "Hg7 mi
2:00 AM43 °FLight rain. Mostly cloudy.6 mph100%29.30 "Hg9 mi
1:55 AM43 °FLight rain. Fog.8 mph100%29.30 "Hg6 mi
1:00 AM43 °FOvercast.10 mph93%29.26 "Hg9 mi
12:00 AM43 °FLight rain. Mostly cloudy.13 mph93%29.22 "Hg8 mi
11:49 PM
Dec 20
43 °FLight rain. Overcast.13 mph93%29.21 "Hg9 mi
11:02 PM43 °FLight rain. Fog.10 mph93%29.19 "Hg6 mi
10:02 PM43 °FLight rain. Mostly cloudy.9 mph93%29.17 "Hg8 mi
9:00 PM45 °FLight rain. Mostly cloudy.14 mph87%29.13 "Hg7 mi
8:59 PM45 °FLight rain. Mostly cloudy.14 mph81%29.13 "Hg6 mi
8:00 PM43 °FLight rain. Fog.12 mph87%29.11 "Hg6 mi
7:46 PM43 °FLight rain. Fog.12 mph87%29.11 "Hg5 mi
7:00 PM43 °FOvercast.13 mph87%29.10 "Hg9 mi
6:00 PM45 °FMostly cloudy.15 mph81%29.08 "Hg9 mi
5:00 PM45 °FPartly cloudy.12 mph87%29.06 "Hg9 mi
4:00 PM45 °FBroken clouds.12 mph87%29.07 "Hg9 mi
3:00 PM45 °FPartly sunny.13 mph87%29.06 "Hg9 mi
2:59 PM45 °FPartly sunny.13 mph87%29.06 "Hg9 mi
2:00 PM45 °FLight rain. Cloudy.9 mph93%29.05 "Hg9 mi
1:52 PM45 °FLight rain. Cloudy.13 mph87%29.05 "Hg9 mi
1:00 PM45 °FLight rain. Mostly cloudy.12 mph87%29.05 "Hg9 mi
12:58 PM45 °FLight rain. Mostly cloudy.13 mph87%29.05 "Hg9 mi
12:00 PM45 °FBroken clouds.18 mph87%29.04 "Hg9 mi
11:59 AM45 °FBroken clouds.17 mph87%29.04 "Hg9 mi
11:03 AM43 °FLight rain. Fog.23 mph93%29.04 "Hg5 mi
10:00 AM43 °FLight rain. Mostly cloudy.12 mph93%29.02 "Hg9 mi
9:00 AM43 °FLight rain. Overcast.15 mph93%29.00 "Hg9 mi
Weather by CustomWeather, © 2014

See weather overviewHow to use our weather pages